Weather History for Henderson, KY

Change the Weather History Date:

Monday, May 6, 2013

  Actual Average Record
Temperature  
Mean Temperature 55 °F -  
Max Temperature 64 °F 75 °F 91 °F (1940)
Min Temperature 46 °F 53 °F 35 °F (1968)
Degree Days  
Heating Degree Days 10    
Growing Degree Days 5 (Base 50)    
Moisture  
Dew Point 46 °F    
Average Humidity 72    
Maximum Humidity 87    
Minimum Humidity 56    
Precipitation  
Precipitation 0.02 in - - ()
Sea Level Pressure  
Sea Level Pressure 29.87 in    
Wind  
Wind Speed 8 mph (NNE)    
Max Wind Speed 15 mph    
Max Gust Speed -    
Visibility 10 miles    
Events      
Averages and records for this station are not official NWS values.
T = Trace of Precipitation, MM = Missing Value Source: NWS Daily Summary

Daily Weather History Graph

Daily Weather History Graph

Search for Another Location

Airport:

Trip Planner

Search our weather history database for the weather conditions in past years. The results will help you decide how hot, cold, wet, or windy it might be!

Date:

Astronomy

May. 06, 2013 Rise Set
Actual Time 5:49 AM CDT 7:46 PM CDT
Civil Twilight 5:20 AM CDT 8:14 PM CDT
Nautical Twilight 4:45 AM CDT 8:49 PM CDT
Astronomical Twilight 4:08 AM CDT 9:27 PM CDT
Moon 3:47 AM CDT (5/6) 4:48 PM CDT (5/6)
Length of Visible Light 14h 54m
Length of Day
13h 56m
Waning Crescent, 11% of the Moon is Illuminated
May 6
Waning Crescent
May 9
New
May 17
First Quarter
May 24
Full
May 31
Last Quarter

Hourly Weather History & Observations

Time (CDT) Temp. Windchill Dew Point Humidity Pressure Visibility Wind Dir Wind Speed Gust Speed Precip Events Conditions
12:15 AM 46.4 °F 41.5 °F 42.8 °F 87% 29.84 in 10.0 mi NE 10.4 mph - N/A   Overcast
12:35 AM 46.4 °F 41.5 °F 42.8 °F 87% 29.85 in 10.0 mi ENE 10.4 mph - N/A   Overcast
12:55 AM 50.0 °F - 42.8 °F 76% 29.85 in 10.0 mi NE 6.9 mph - N/A   Overcast
1:35 AM 48.2 °F - 42.8 °F 82% 29.84 in 10.0 mi NE 5.8 mph - N/A   Overcast
1:55 AM 48.2 °F - 42.8 °F 82% 29.83 in 10.0 mi NE 5.8 mph - N/A   Overcast
2:15 AM 48.2 °F - 42.8 °F 82% 29.83 in 10.0 mi NNE 5.8 mph - N/A   Overcast
2:35 AM 48.2 °F - 42.8 °F 82% 29.83 in 10.0 mi NNE 6.9 mph - N/A   Overcast
2:55 AM 48.2 °F - 42.8 °F 82% 29.83 in 10.0 mi North 5.8 mph - N/A   Overcast
3:15 AM 48.2 °F - 42.8 °F 82% 29.83 in 10.0 mi North 5.8 mph - N/A   Overcast
3:35 AM 48.2 °F - 42.8 °F 82% 29.83 in 10.0 mi North 5.8 mph - N/A   Overcast
3:55 AM 48.2 °F - 42.8 °F 82% 29.82 in 10.0 mi NNW 4.6 mph - N/A   Overcast
4:15 AM 48.2 °F - 42.8 °F 82% 29.83 in 10.0 mi North 4.6 mph - N/A   Overcast
4:35 AM 48.2 °F - 42.8 °F 82% 29.82 in 10.0 mi North 5.8 mph - N/A   Overcast
4:55 AM 48.2 °F - 42.8 °F 82% 29.83 in 10.0 mi North 5.8 mph - N/A   Overcast
5:15 AM 48.2 °F - 44.6 °F 87% 29.83 in 5.0 mi North 6.9 mph - N/A   Overcast
5:35 AM 48.2 °F - 44.6 °F 87% 29.83 in 10.0 mi NNE 8.1 mph - 0.01 in   Overcast
5:55 AM 48.2 °F - 44.6 °F 87% 29.84 in 9.0 mi NNE 9.2 mph - 0.02 in   Overcast
6:15 AM 48.2 °F - 44.6 °F 87% 29.84 in 8.0 mi NNE 8.1 mph - N/A   Overcast
6:35 AM 48.2 °F - 44.6 °F 87% 29.85 in 9.0 mi NNE 6.9 mph - N/A   Overcast
6:55 AM 48.2 °F - 44.6 °F 87% 29.85 in 10.0 mi NNE 8.1 mph - N/A   Overcast
7:15 AM 48.2 °F - 44.6 °F 87% 29.86 in 10.0 mi NNE 6.9 mph - N/A   Overcast
7:35 AM 50.0 °F - 44.6 °F 82% 29.86 in 10.0 mi NNE 9.2 mph - N/A   Overcast
7:55 AM 50.0 °F - 44.6 °F 82% 29.86 in 10.0 mi NNE 9.2 mph - N/A   Overcast
8:15 AM 50.0 °F - 44.6 °F 82% 29.86 in 10.0 mi North 6.9 mph - N/A   Overcast
8:35 AM 51.8 °F - 46.4 °F 82% 29.86 in 10.0 mi NNE 9.2 mph - N/A   Overcast
8:55 AM 51.8 °F - 46.4 °F 82% 29.86 in 10.0 mi NNE 10.4 mph - N/A   Overcast
9:15 AM 51.8 °F - 46.4 °F 82% 29.87 in 10.0 mi NE 6.9 mph - N/A   Overcast
9:35 AM 51.8 °F - 46.4 °F 82% 29.87 in 10.0 mi NNE 11.5 mph - N/A   Overcast
9:55 AM 53.6 °F - 46.4 °F 77% 29.87 in 10.0 mi North 11.5 mph - N/A   Overcast
10:15 AM 53.6 °F - 46.4 °F 77% 29.87 in 10.0 mi NNE 9.2 mph - N/A   Overcast
10:35 AM 53.6 °F - 46.4 °F 77% 29.87 in 10.0 mi NNE 15.0 mph - N/A   Overcast
10:55 AM 55.4 °F - 48.2 °F 77% 29.88 in 10.0 mi NNE 11.5 mph - N/A   Overcast
11:15 AM 57.2 °F - 46.4 °F 67% 29.88 in 10.0 mi NNE 11.5 mph - N/A   Overcast
11:35 AM 57.2 °F - 46.4 °F 67% 29.88 in 10.0 mi NNE 12.7 mph - N/A   Overcast
11:55 AM 57.2 °F - 46.4 °F 67% 29.88 in 10.0 mi NE 11.5 mph - N/A   Overcast
12:15 PM 57.2 °F - 46.4 °F 67% 29.88 in 10.0 mi NE 10.4 mph - N/A   Overcast
12:35 PM 57.2 °F - 48.2 °F 72% 29.88 in 10.0 mi NE 12.7 mph - N/A   Overcast
12:55 PM 62.6 °F - 48.2 °F 59% 29.88 in 10.0 mi NNE 10.4 mph - N/A   Mostly Cloudy
1:15 PM 64.4 °F - 48.2 °F 56% 29.87 in 10.0 mi NNE 11.5 mph - N/A   Scattered Clouds
1:35 PM 60.8 °F - 50.0 °F 68% 29.87 in 10.0 mi North 5.8 mph - N/A   Mostly Cloudy
1:55 PM 64.4 °F - 48.2 °F 56% 29.87 in 10.0 mi NE 8.1 mph - N/A   Overcast
2:15 PM 62.6 °F - 48.2 °F 59% 29.87 in 10.0 mi NNE 10.4 mph - N/A   Mostly Cloudy
2:35 PM 62.6 °F - 48.2 °F 59% 29.87 in 10.0 mi NNE 11.5 mph - N/A   Overcast
2:55 PM 64.4 °F - 48.2 °F 56% 29.87 in 10.0 mi NNE 9.2 mph - N/A   Overcast
3:15 PM 64.4 °F - 48.2 °F 56% 29.86 in 10.0 mi NNE 8.1 mph - N/A   Overcast
3:35 PM 64.4 °F - 48.2 °F 56% 29.86 in 10.0 mi NNE 8.1 mph - N/A   Overcast
3:55 PM 64.4 °F - 48.2 °F 56% 29.86 in 10.0 mi North 10.4 mph - N/A   Overcast
4:15 PM 62.6 °F - 48.2 °F 59% 29.86 in 10.0 mi NNE 8.1 mph - N/A   Overcast
4:35 PM 62.6 °F - 48.2 °F 59% 29.86 in 10.0 mi NE 8.1 mph - N/A   Overcast
4:55 PM 62.6 °F - 48.2 °F 59% 29.86 in 10.0 mi NE 6.9 mph - N/A   Overcast
5:15 PM 62.6 °F - 48.2 °F 59% 29.86 in 10.0 mi NNE 5.8 mph - N/A   Overcast
5:55 PM 62.6 °F - 48.2 °F 59% 29.87 in 10.0 mi North 5.8 mph - N/A   Overcast
6:15 PM 62.6 °F - 48.2 °F 59% 29.88 in 10.0 mi NNE 6.9 mph - N/A   Overcast
6:35 PM 62.6 °F - 48.2 °F 59% 29.87 in 10.0 mi North 5.8 mph - N/A   Overcast
6:55 PM 60.8 °F - 48.2 °F 63% 29.88 in 10.0 mi North 5.8 mph - N/A   Overcast
7:15 PM 60.8 °F - 48.2 °F 63% 29.89 in 10.0 mi NNW 4.6 mph - N/A   Overcast
7:35 PM 60.8 °F - 48.2 °F 63% 29.89 in 10.0 mi NNW 5.8 mph - N/A   Overcast
7:55 PM 59.0 °F - 48.2 °F 67% 29.90 in 10.0 mi Calm Calm - N/A   Mostly Cloudy
8:15 PM 59.0 °F - 46.4 °F 63% 29.91 in 10.0 mi North 4.6 mph - N/A   Partly Cloudy
8:35 PM 57.2 °F - 48.2 °F 72% 29.92 in 10.0 mi North 3.5 mph - N/A   Clear
8:55 PM 57.2 °F - 46.4 °F 67% 29.92 in 10.0 mi North 4.6 mph - N/A   Scattered Clouds
9:15 PM 57.2 °F - 48.2 °F 72% 29.92 in 10.0 mi North 4.6 mph - N/A   Scattered Clouds
9:35 PM 57.2 °F - 46.4 °F 67% 29.92 in 10.0 mi NNW 5.8 mph - N/A   Clear
9:55 PM 57.2 °F - 48.2 °F 72% 29.93 in 10.0 mi North 3.5 mph - N/A   Clear
10:15 PM 57.2 °F - 46.4 °F 67% 29.93 in 10.0 mi NNW 5.8 mph - N/A   Clear
10:35 PM 57.2 °F - 46.4 °F 67% 29.92 in 10.0 mi North 3.5 mph - N/A   Clear
10:55 PM 57.2 °F - 46.4 °F 67% 29.92 in 10.0 mi North 3.5 mph - N/A   Clear
11:15 PM 55.4 °F - 46.4 °F 72% 29.92 in 10.0 mi Calm Calm - N/A   Mostly Cloudy
11:35 PM 55.4 °F - 46.4 °F 72% 29.92 in 10.0 mi Calm Calm - N/A   Partly Cloudy
11:55 PM 55.4 °F - 46.4 °F 72% 29.93 in 10.0 mi Calm Calm - N/A   Clear